This is the latest recevied weather packets stored in our database for station/object IZ1UQG-1. If no packets are shown the sender has not sent any weather packets the latest 10 day(s).
| Time | Temp. | Humidity | Pressure | Rain* | Wind** | Luminosity | Snow |
|---|---|---|---|---|---|---|---|
| 1777868938 | 15° C | 55% | 1017 hPa | 212.6 mm | - | - | - |
| 1777868638 | 15.56° C | 55% | 1016.9 hPa | 166.88 mm | - | - | - |
| 1777868338 | 15.56° C | 55% | 1016.9 hPa | 166.88 mm | - | - | - |
| 1777868038 | 15.56° C | 54% | 1017 hPa | 196.09 mm | - | - | - |
| 1777867738 | 15.56° C | 54% | 1016.8 hPa | 176.78 mm | - | - | - |
| 1777867438 | 15.56° C | 54% | 1016.8 hPa | 162.81 mm | - | - | - |
| 1777867138 | 15.56° C | 54% | 1016.7 hPa | 46.74 mm | - | - | - |
| 1777866838 | 15.56° C | 54% | 1017 hPa | 145.8 mm | - | - | - |
| 1777866538 | 15.56° C | 54% | 1016.8 hPa | 148.84 mm | - | - | - |
| 1777866238 | 15.56° C | 54% | 1016.9 hPa | 136.4 mm | - | - | - |
| 1777865938 | 15.56° C | 54% | 1016.9 hPa | 85.6 mm | - | - | - |
| 1777865638 | 15.56° C | 54% | 1016.9 hPa | 142.24 mm | - | - | - |
| 1777865338 | 15.56° C | 53% | 1017 hPa | 142.75 mm | - | - | - |
| 1777865038 | 15.56° C | 53% | 1017 hPa | 150.37 mm | - | - | - |
| 1777864738 | 15.56° C | 53% | 1016.9 hPa | 97.54 mm | - | - | - |
| 1777864438 | 15.56° C | 53% | 1016.8 hPa | 84.07 mm | - | - | - |
| 1777864138 | 15.56° C | 53% | 1016.8 hPa | 112.01 mm | - | - | - |
| 1777863838 | 16.11° C | 53% | 1016.8 hPa | 128.27 mm | - | - | - |
| 1777863538 | 16.11° C | 53% | 1017 hPa | 61.98 mm | - | - | - |
| 1777863238 | 16.11° C | 53% | 1016.9 hPa | 114.81 mm | - | - | - |
| 1777862938 | 16.11° C | 53% | 1016.9 hPa | 126.49 mm | - | - | - |
| 1777862638 | 16.11° C | 52% | 1016.8 hPa | 124.46 mm | - | - | - |
| 1777862338 | 16.11° C | 52% | 1017.1 hPa | 121.92 mm | - | - | - |
| 1777862038 | 16.11° C | 52% | 1017 hPa | 119.89 mm | - | - | - |
| 1777861738 | 16.11° C | 52% | 1017 hPa | 122.94 mm | - | - | - |
* Rain latest hour (hover to see other rain measurements)
** Current wind speed in m/s (hover to see current wind gust speed)